Погода в Лояне

Китай     34°39′58″N   112°26′36″E
темп.,
°C
ветер,
м/с
пор.,
м/с
влажн.,
%
обл.,
%
осадки,
мм/ч
давл.,
гПа
погр.,
м
17 мая, пн
пн1723:00+13юз22875 0.0 101630
02:00+12з34843 0.0 101671
05:00+11з3486100 0.0 101574
08:00+15зюз3469100 0.0 1016257
11:00+21з3446100 0.0 1016690
14:00+26з2328100 0.0 10141612
17:00+26ююз122555 0.0 10111716
20:00+21юз333828 0.0 101237
18 мая, вт
вт1823:00+19юз2244100 0.0 101318
02:00+17юз3352100 0.0 101244
05:00+16юз3354100 0.0 101145
08:00+19юз4548100 0.0 1012247
11:00+26зюз33310 0.0 1011884
14:00+29ю32217 0.0 10081606
17:00+30ю222169 0.0 10061922
20:00+24ю51136100 0.0 1007265
19 мая, ср
ср1923:00+21ююз494598 0.0 1008224
02:00+20з1152100 0.0 100811
05:00+18зюз2260100 0.0 100813
08:00+21юз1254100 0.0 1008233
11:00+27ююз3336100 0.0 1007839
14:00+30ююз3326100 0.0 10041446
17:00+30ю3221100 0.0 10021712
20:00+25ю484571 0.0 1003195
20 мая, чт
чт2023:00+21юз116619 0.0 100522
02:00+19ю11688 0.0 100412
05:00+18юз117095 0.0 100511
08:00+22всв115896 0.0 1006326
11:00+28ююз11400 0.0 1005884
14:00+32ю33280 0.0 10021452
17:00+33св21230 0.0 10012192
20:00+27ююв511431 0.0 1003366
21 мая, пт
пт2123:00+24с3547100 0.0 100592
02:00+22с11520 0.0 100411
05:00+21ссв11570 0.0 100411
08:00+24ююв11490 0.0 1005335
11:00+30ююв22402 0.0 10041041
14:00+34ю4329100 0.0 10012099
17:00+34ююв642878 0.0 10002281
20:00+28ююв7124865 0.0 1001467